TimeEST,TemperatureF,Dew PointF,Humidity,Sea Level PressureIn,VisibilityMPH,Wind Direction,Wind SpeedMPH,Gust SpeedMPH,PrecipitationIn,Events,Conditions,WindDirDegrees,DateUTC
8:35 AM,59.0,51.8,77,30.21,10.0,ENE,9.2,-,N/A,,Overcast,60,2012-12-06 13:35:00
8:55 AM,59.0,50.0,72,30.22,10.0,NE,5.8,-,N/A,,Mostly Cloudy,40,2012-12-06 13:55:00
9:15 AM,59.0,48.2,67,30.23,10.0,NE,6.9,-,N/A,,Clear,50,2012-12-06 14:15:00
9:35 AM,59.0,44.6,59,30.23,10.0,ENE,6.9,16.1,N/A,,Clear,60,2012-12-06 14:35:00
9:55 AM,60.8,44.6,55,30.23,10.0,ENE,9.2,-,N/A,,Clear,60,2012-12-06 14:55:00
10:15 AM,60.8,44.6,55,30.23,10.0,ENE,9.2,-,N/A,,Clear,60,2012-12-06 15:15:00
10:35 AM,60.8,44.6,55,30.22,10.0,NE,4.6,-,N/A,,Clear,50,2012-12-06 15:35:00
10:55 AM,60.8,44.6,55,30.22,10.0,NNE,11.5,-,N/A,,Clear,30,2012-12-06 15:55:00
11:15 AM,62.6,44.6,52,30.21,10.0,NNE,9.2,-,N/A,,Clear,30,2012-12-06 16:15:00
11:35 AM,62.6,44.6,52,30.21,10.0,NE,5.8,-,N/A,,Clear,50,2012-12-06 16:35:00
11:55 AM,62.6,44.6,52,30.20,10.0,NE,8.1,-,N/A,,Clear,40,2012-12-06 16:55:00
12:15 PM,62.6,46.4,55,30.19,10.0,ENE,3.5,-,N/A,,Clear,60,2012-12-06 17:15:00
12:35 PM,64.4,46.4,52,30.18,10.0,ENE,8.1,-,N/A,,Clear,60,2012-12-06 17:35:00
12:55 PM,64.4,46.4,52,30.17,10.0,East,6.9,-,N/A,,Clear,90,2012-12-06 17:55:00
1:15 PM,64.4,46.4,52,30.17,10.0,ENE,6.9,-,N/A,,Clear,60,2012-12-06 18:15:00
1:35 PM,64.4,46.4,52,30.16,10.0,North,8.1,-,N/A,,Scattered Clouds,360,2012-12-06 18:35:00
1:55 PM,64.4,48.2,56,30.16,10.0,ENE,3.5,-,N/A,,Mostly Cloudy,70,2012-12-06 18:55:00
2:15 PM,64.4,46.4,52,30.16,10.0,NNE,9.2,-,N/A,,Mostly Cloudy,20,2012-12-06 19:15:00
2:35 PM,64.4,46.4,52,30.15,10.0,NE,6.9,-,N/A,,Overcast,40,2012-12-06 19:35:00
2:55 PM,62.6,46.4,55,30.16,10.0,NE,8.1,-,N/A,,Overcast,40,2012-12-06 19:55:00
3:15 PM,62.6,46.4,55,30.15,10.0,NE,4.6,-,N/A,,Overcast,50,2012-12-06 20:15:00
3:35 PM,62.6,46.4,55,30.15,10.0,NE,5.8,-,N/A,,Mostly Cloudy,40,2012-12-06 20:35:00
3:55 PM,62.6,46.4,55,30.16,10.0,NE,8.1,-,N/A,,Mostly Cloudy,50,2012-12-06 20:55:00
4:15 PM,60.8,46.4,59,30.16,10.0,NE,5.8,-,N/A,,Scattered Clouds,50,2012-12-06 21:15:00
4:35 PM,60.8,44.6,55,30.17,10.0,NNE,4.6,-,N/A,,Scattered Clouds,20,2012-12-06 21:35:00
4:55 PM,59.0,44.6,59,30.17,10.0,NNE,6.9,-,N/A,,Scattered Clouds,20,2012-12-06 21:55:00
5:15 PM,57.2,44.6,63,30.18,10.0,NNE,4.6,-,N/A,,Scattered Clouds,20,2012-12-06 22:15:00
5:35 PM,55.4,44.6,67,30.18,10.0,NNE,6.9,-,N/A,,Scattered Clouds,20,2012-12-06 22:35:00
5:55 PM,55.4,42.8,63,30.18,10.0,NE,8.1,-,N/A,,Clear,40,2012-12-06 22:55:00
6:15 PM,53.6,42.8,67,30.19,10.0,NNE,6.9,-,N/A,,Mostly Cloudy,30,2012-12-06 23:15:00
6:35 PM,53.6,33.8,47,30.20,10.0,NNE,6.9,-,N/A,,Overcast,20,2012-12-06 23:35:00
6:55 PM,53.6,41.0,62,30.20,10.0,NNE,9.2,-,N/A,,Overcast,30,2012-12-06 23:55:00
7:15 PM,53.6,41.0,62,30.21,10.0,NE,8.1,-,N/A,,Overcast,40,2012-12-07 00:15:00
7:35 PM,53.6,41.0,62,30.21,10.0,NE,5.8,-,N/A,,Overcast,40,2012-12-07 00:35:00
7:55 PM,53.6,41.0,62,30.20,10.0,NE,9.2,-,N/A,,Overcast,40,2012-12-07 00:55:00
8:15 PM,53.6,39.2,58,30.21,10.0,NE,3.5,-,N/A,,Mostly Cloudy,50,2012-12-07 01:15:00
8:35 PM,53.6,23.0,30,30.20,10.0,NNE,6.9,-,N/A,,Mostly Cloudy,30,2012-12-07 01:35:00
8:55 PM,51.8,37.4,58,30.20,10.0,NE,5.8,-,N/A,,Overcast,40,2012-12-07 01:55:00
9:35 PM,51.8,35.6,54,30.19,10.0,NNE,8.1,-,N/A,,Overcast,30,2012-12-07 02:35:00
9:55 PM,51.8,37.4,58,30.19,10.0,North,4.6,-,N/A,,Overcast,10,2012-12-07 02:55:00
10:15 PM,51.8,33.8,50,30.18,10.0,NNE,5.8,-,N/A,,Overcast,20,2012-12-07 03:15:00
10:35 PM,51.8,37.4,58,30.18,10.0,NE,3.5,-,N/A,,Overcast,50,2012-12-07 03:35:00
10:55 PM,51.8,39.2,62,30.17,10.0,NE,4.6,-,N/A,,Overcast,40,2012-12-07 03:55:00
11:15 PM,51.8,39.2,62,30.16,10.0,NE,3.5,-,N/A,,Overcast,50,2012-12-07 04:15:00
11:35 PM,51.8,37.4,58,30.16,10.0,Calm,Calm,-,N/A,,Overcast,0,2012-12-07 04:35:00
11:55 PM,51.8,37.4,58,30.15,10.0,ENE,4.6,-,N/A,,Overcast,60,2012-12-07 04:55:00